Air Resources Laboratory banner image
Air Resources Laboratory web site National Oceanic and Atmospheric Administration (NOAA)

mt roundup


Office: TFX

ASUS45 KTFX 161010
RWRMT
Montana Regional Weather Roundup
National Weather Service Great Falls MT
400 AM MDT TUE AUG 16 2022

NOTE: "FAIR" indicates few or no clouds below 12,000 feet with no
significant weather and/or obstructions to visibility.

MTZ001>007-043-161100-
West of the divide

CITY           SKY/WX    TMP DP  RH WIND       PRES   REMARKS
Kalispell      CLEAR     49  44  83 CALM      30.05R
Missoula       CLEAR     58  38  47 CALM      30.09S
Butte          CLEAR     50  36  58 SE5       30.23S
Anaconda         N/A     55  28  35 SW6       30.19S
Hamilton       FAIR      50  39  66 CALM      30.11S
Mullan Pass    CLEAR     66  25  21 W3        30.23F
Plains           N/A     52  -8   8 CALM      30.06R
Thompson Falls   N/A     52  43  71 CALM      30.10R
$$

MTZ008-052>055-161100-
Southwest Montana

CITY           SKY/WX    TMP DP  RH WIND       PRES   REMARKS
Bozeman        CLEAR     59  37  44 S5        30.15R
Dillon         CLEAR     58  31  35 S6        30.18R
Ennis          PTCLDY    57  36  44 E3        30.23S
Twin Bridges   FAIR      52  39  62 S7        30.17S
W Yellowstone  MOCLDY    43  43 100 CALM      30.28S
$$

MTZ009-010-012-014-046-048-049-054-161100-
East Slopes and Central Montana

CITY           SKY/WX    TMP DP  RH WIND       PRES   REMARKS
Cut Bank       CLEAR     55  41  59 W8        30.08S
Great Falls    CLEAR     59  33  37 SW9       30.08R
Helena         CLEAR     62  30  29 NE3       30.11S
Malmstrom AFB  CLEAR     59  39  47 W5        30.10R
Augusta        FAIR      62  27  27 N6        30.11R
Bowmans Corner FAIR      59  31  34 SW6       30.08R
Choteau          N/A     59  32  36 CALM      30.09R
Power          FAIR      60  31  34 N10       30.05S
Raynesford     FAIR      56  45  66 CALM      30.09R
Ulm            FAIR      58  32  37 E6        30.06S
$$

MTZ011-013-016-021-045-047-050-051-161100-
North Central Montana

CITY           SKY/WX    TMP DP  RH WIND       PRES   REMARKS
Havre          CLEAR     64  50  60 NE7       30.00S
Lewistown      CLEAR     58  48  69 E3        30.11F
Chinook          N/A     64  48  55 E7        30.03S
Denton         FAIR      61  49  65 S8        30.07S
N Bar Ranch    FAIR      57  48  72 VRB6      30.17S
Stanford       FAIR      61  46  57 S6        30.10R
Winifred       FAIR      65  47  51 NW3       30.07R
$$

MTZ017>020-022>027-061-062-161100-
Northeast Montana

CITY           SKY/WX    TMP DP  RH WIND       PRES   REMARKS
Glasgow        PTCLDY    67  51  56 E13       30.04S
Culbertson       N/A     55  54  94 E3        30.04F
Glendive       MOCLDY    68  56  65 NE7       30.07S
Jordan           N/A     61  48  62 E3        30.04F
Malta          CLEAR     66  46  48 E6        30.02R
Plentywood     PTCLDY    55  52  88 W3        30.07R
Sidney         PTCLDY    63  57  81 NW6       30.06S
Wolf Point     CLEAR     60  48  64 CALM      30.06S
$$

MTZ028>42-056>058-161100-
Southcentral and southeast Montana

CITY           SKY/WX    TMP DP  RH WIND       PRES   REMARKS
Baker          MOCLDY    62  53  72 NW33G62   30.10S SQUALL
Big Timber     CLEAR     57  45  62 S6        30.17R
Billings       CLEAR     65  50  58 N6        30.09R
Hardin           N/A    N/A N/A N/A MISG        N/A
Laurel           N/A     63  50  63 NW12      30.09R
Livingston     CLEAR     53  41  63 NW5       30.17R
Miles City     MOCLDY    71  53  52 NW13G24   30.07R
Roundup          N/A     61  52  72 W6        30.01R
$$

Regional Reports...Dakotas/MN

CITY           SKY/WX    TMP DP  RH WIND       PRES   REMARKS
Williston      SUNNY     60  55  83 CALM      30.07R
Minot          CLEAR     64  61  90 S5        30.02R
Dickinson      PTCLDY    60  56  86 S3        30.06R
Beach            N/A    N/A N/A N/A MISG        N/A
Bowman         FAIR      59  59 100 S7        30.09S
Crosby         MOCLDY    54  54 100 CALM      30.06R
Glen Ullin     FAIR      61  57  88 S3        30.05R
Hettinger      FOG       58  56  93 CALM      30.09  VSB 3/4
Tioga          FAIR      54  54 100 CALM      30.08R
Watford City   FAIR      57  57 100 CALM      30.06S
Bismarck       PTCLDY    67  62  84 SW3       30.06R
Grand Forks    MOCLDY    69  65  86 SW9       29.97R
Fargo          CLEAR     66  63  90 S13       30.05S
Buffalo SD       N/A     62  58  86 S5        30.07S
Rapid City     FOG       58  58 100 CALM      30.11S VSB 1/4
Intl Falls     MOCLDY    63  60  90 VRB5      30.10R
Duluth         MOCLDY    57  55  93 E7        30.16S
Minneapolis    CLOUDY    67  63  87 CALM      30.14R
$$

Regional Reports...WY/CO/ID/WA/OR

CITY           SKY/WX    TMP DP  RH WIND       PRES   REMARKS
Buffalo WY     CLEAR     62  47  57 SE8       30.18R
Cody           CLEAR     61  44  53 CALM      30.18R
Gillette       CLEAR     67  53  61 SW8       30.15S
Powell         FAIR      64  43  45 SE8       30.15S
Sheridan       CLEAR     57  48  72 S7        30.10F
Yellowstone La   N/A     43  40  89 NW5       30.39S
Boise          CLEAR     70  34  26 SW5       29.97R
Couer d'Alene  CLEAR     58  44  60 NE5       30.03S
Idaho Falls    CLEAR     55  46  71 N3        30.12S
Salmon         CLEAR     53  41  63 CALM      30.13R
Spokane        CLEAR     67  42  40 E3        30.01S
Seattle        PTCLDY    61  56  83 SW3       30.06R
Portland       CLEAR     66  58  75 N5        30.04S
$$

Other Reports

CITY           SKY/WX    TMP DP  RH WIND       PRES   REMARKS
Atlanta        PTCLDY    71  68  90 NW7       29.89R
Anchorage      MOCLDY    55  48  77 SE14G24   29.80S
Boston         PTCLDY    64  59  83 N6        30.05R
Chicago        PTCLDY    62  60  93 N7        30.07S
Fairbanks      MOCLDY    51  49  92 NE5       29.78S
Houston        PTCLDY    76  74  93 SW3       29.93R
Las Vegas NV   CLOUDY    82  58  43 CALM      29.88R
Phoenix AZ     PTCLDY    88  67  49 SW3       29.76R HX  91
Salt Lake City PTCLDY    75  49  39 S9        30.03S
San Diego      PTCLDY    70  65  84 CALM      29.82F
San Francisco  PTCLDY    59  52  77 NW10      29.80S
Washington Dul CLOUDY    66  64  93 N5        29.98S
$$

Regional Reports...Alberta

CITY           SKY/WX    TMP DP  RH WIND       PRES   REMARKS
Calgary        PTCLDY    54  48  82 NE2       30.06F
Cardston         N/A     54  43  66 SW2         N/A
Crowsnest Pass   N/A     43  41  93 MISG        N/A
Del Bonita       N/A     50  41  71 SW7         N/A
Fort McMurray  CLEAR     55  52  88 CALM      29.91R
High Level     CLEAR     52  48  87 VRB2      29.81R
Lethbridge     CLEAR     57  45  62 W7        30.03S
Medicine Hat   CLEAR     61  39  44 NE5       29.99S
Milk River       N/A     54  41  62 NW12        N/A
Onefour          N/A     61  43  51 NE12        N/A
Pincher Creek  CLEAR     50  41  71 W8        30.09S
Raymond          N/A     52  45  76 SW7         N/A
Waterton Gate    N/A     55  43  62 SW7         N/A
Fort Smith NWT LGT RAIN  64  54  68 S6        29.72R
$$

Regional Reports...Saskatchewan

CITY           SKY/WX    TMP DP  RH WIND       PRES   REMARKS
Assiniboia       N/A     54  46  76 SE7         N/A
Coronach         N/A     50  46  87 NW1         N/A
Cypress Hills    N/A     63  39  42 SE7         N/A
Estevan        FOG       55  55 100 SW5       30.04  VSB 1/4
Moose Jaw        N/A     57  55  94 E5          N/A
Prince Albert  MOCLDY    55  54  94 VRB2      30.04R
Regina         CLEAR     59  59 100 SE2       30.07R
Rockglen         N/A     59  46  63 S9          N/A
Saskatoon      MOCLDY    63  59  88 SE6       30.01F
Swift Current  CLEAR     64  45  48 S12       30.03S
Uranium City     N/A     59  57  94 N1          N/A
Val Marie        N/A     57  39  51 W1          N/A
$$